Wind_Gust
18 18 15 18 21 24 24 15 24 16 27 29 28 23 28 12 16 23 20 14 17 22 16 17 13 15 18 21 17 20 24 16 18 18 14 24 18 23 25 27 29 26 26 27 26 25 23 20 18 18 19 19 19 19 18 18 18 17 16 15 14 14 12 12 11 10 11 11 12 12 14 15 15 16 16 16 16 16 15 15 15 14 15 16 17 15 17 17 17 18 18 18 17 17 18 16 16
19 15 15 17 23 23 14 15 30 27 27 29 32 23 21 15 17 16 15 17 18 25 20 18 15 14 14 16 14 15 30 27 24 31 27 22 22 24 27 26 28 27 25 26 26 25 24 24 18 18 17 18 19 18 17 17 17 16 16 15 14 12 12 11 11 11 12 12 13 14 14 16 17 17 17 17 18 16 15 15 15 15 15 16 16 16 16 16 16 17 17 16 17 17 17 15 14
19 17 18 19 24 21 22 22 30 27 27 27 28 29 16 23 21 16 16 17 18 17 15 13 14 14 16 12 19 18 19 21 26 27 28 23 26 22 24 26 27 26 25 26 26 25 23 22 19 18 18 18 18 19 17 16 16 16 15 14 13 13 12 12 13 13 13 14 14 15 15 16 17 17 18 18 18 18 17 16 16 16 16 15 16 16 15 15 15 15 15 15 14 13 13 14 13
20 16 19 16 20 15 21 22 25 29 31 29 27 23 20 18 15 14 14 14 13 14 11 13 20 19 19 19 23 24 18 18 22 23 32 26 26 27 26 26 27 26 26 26 25 25 22 22 18 17 17 17 17 18 17 16 16 16 15 14 14 13 14 14 14 14 15 14 15 16 16 17 18 18 18 18 18 17 17 16 15 16 16 16 15 15 15 15 15 15 14 13 12 11 11 11 11
20 16 15 18 19 23 20 21 25 25 30 28 31 30 21 13 13 10 11 12 10 13 12 14 19 13 16 21 17 15 21 18 20 18 29 25 26 26 26 26 25 25 25 25 24 24 24 21 16 15 16 17 17 17 17 16 16 15 15 15 15 14 15 15 15 15 16 16 16 17 17 17 17 17 18 17 17 18 16 16 14 15 16 15 14 13 13 13 14 13 12 12 11 10 9 8 8
18 18 15 17 21 24 26 28 30 32 29 32 33 35 17 14 10 11 11 12 10 13 12 13 18 15 17 22 25 24 17 11 18 21 26 25 27 27 25 24 24 24 24 24 24 23 25 20 16 15 15 16 17 17 16 16 16 15 15 15 16 15 15 16 16 17 17 17 17 17 17 16 16 16 17 17 17 17 16 16 15 13 12 12 13 12 12 13 12 12 11 10 10 9 7 6 7
19 17 20 19 26 21 25 28 31 31 29 27 30 25 25 14 12 12 13 12 12 11 9 14 10 14 18 25 25 24 19 16 16 21 21 27 26 26 25 25 24 24 24 24 23 25 26 16 15 16 15 16 17 17 16 16 15 15 15 16 16 16 17 17 17 18 17 17 17 17 16 16 16 16 17 17 17 16 15 15 14 14 13 12 12 11 11 11 11 10 10 9 8 6 6 6 7
16 21 17 21 22 25 26 27 31 30 31 31 24 26 23 13 11 12 16 14 14 19 17 11 14 17 18 17 18 12 15 20 24 22 26 25 25 26 24 24 24 25 25 23 24 24 23 16 15 15 15 15 16 16 16 15 14 13 15 17 17 17 17 18 17 17 17 16 16 16 15 16 16 16 16 17 16 15 15 15 14 13 12 11 11 11 10 10 10 9 9 8 6 5 5 6 7
19 23 15 23 27 32 33 33 31 29 31 28 26 24 12 18 14 14 16 14 14 15 12 14 14 18 16 19 20 14 16 16 20 22 24 25 24 24 26 24 24 25 24 27 26 23 24 17 15 14 17 15 16 17 15 15 13 14 15 16 17 17 17 17 17 16 16 15 14 14 15 15 15 15 16 16 15 15 15 14 13 12 11 11 10 10 10 9 9 9 8 8 6 4 5 6 7
23 21 21 26 23 32 31 33 33 27 32 28 22 17 16 17 18 17 17 18 15 10 13 8 13 21 17 17 20 14 20 19 23 23 23 24 23 23 23 23 25 26 25 26 26 25 23 20 14 14 14 16 16 16 15 15 15 15 15 16 16 16 17 16 16 15 15 15 14 14 14 14 14 14 14 14 14 14 13 13 12 11 10 10 9 8 8 8 9 9 7 6 6 6 4 4 7
27 25 20 30 29 31 33 32 32 28 32 27 17 16 12 17 17 19 18 18 14 16 15 11 20 22 19 19 18 13 18 19 22 24 22 21 21 23 24 23 25 24 25 26 25 25 26 24 20 15 15 13 12 15 16 17 16 15 15 16 16 17 17 16 16 15 14 14 14 14 14 14 14 14 13 13 13 12 12 11 11 10 10 9 9 8 8 8 8 8 6 4 4 4 4 3 5
27 26 24 29 33 33 31 33 29 30 30 14 19 15 16 17 16 20 20 20 17 16 16 17 21 24 23 19 16 17 20 22 22 23 22 22 22 23 23 24 23 23 24 27 28 26 25 25 23 20 14 14 16 17 16 16 16 15 15 15 16 16 16 16 15 14 14 13 13 13 13 13 13 14 13 12 11 10 10 10 10 10 10 9 8 8 8 8 8 7 5 4 5 4 4 3 6
29 24 27 30 31 31 32 34 32 29 27 18 20 20 13 14 17 17 18 20 18 18 19 18 21 19 20 19 23 19 20 20 20 20 21 22 23 23 23 24 22 23 24 25 28 27 25 24 26 24 20 18 16 16 16 16 15 15 14 15 16 15 15 15 14 14 13 13 13 13 13 13 13 13 12 12 10 10 9 10 10 10 10 9 8 8 8 8 8 7 6 4 4 4 3 4 6
29 27 26 33 27 32 35 32 29 28 27 28 22 19 13 16 16 17 18 21 21 20 16 16 20 23 22 25 23 23 23 19 22 18 21 21 21 23 22 23 21 22 23 24 27 27 24 23 25 25 24 22 22 18 16 15 16 15 15 15 16 15 15 14 14 13 13 12 12 12 12 12 12 12 12 11 10 9 9 10 10 9 10 10 9 7 7 7 7 7 5 5 3 4 4 4 6
28 25 29 30 31 31 28 33 28 31 30 22 26 15 14 16 14 13 18 19 22 19 15 18 19 23 25 19 26 26 25 22 23 20 21 20 19 21 22 22 20 20 23 22 24 24 23 23 24 24 21 22 23 19 18 19 15 16 16 17 16 15 14 14 14 13 13 12 12 12 12 12 11 11 12 10 10 9 10 10 10 10 10 10 9 8 6 6 6 6 5 5 3 4 3 3 6
24 26 27 28 32 31 33 29 27 33 32 21 18 10 13 13 15 18 20 22 17 18 18 25 16 18 24 27 27 31 27 26 23 22 23 23 21 19 22 21 21 21 21 20 20 20 21 20 20 22 22 21 19 20 20 18 15 15 16 17 16 14 13 14 14 14 13 12 11 10 12 17 15 14 13 16 10 9 8 10 8 9 9 9 9 8 7 6 5 5 4 4 3 4 4 4 6
22 25 27 29 31 29 28 34 25 31 26 22 15 15 15 16 17 18 14 23 21 19 20 17 16 22 21 25 36 34 29 27 21 23 24 24 24 22 22 22 22 21 20 20 20 21 19 19 19 20 20 18 20 20 19 18 18 16 15 15 15 13 14 14 14 14 14 12 12 10 11 17 11 16 19 15 15 14 9 8 8 8 8 8 8 8 7 6 5 3 3 4 5 6 7 7 9
23 30 29 30 28 31 25 34 27 18 20 16 13 13 13 18 18 19 15 20 21 19 23 18 18 22 29 35 33 33 30 30 27 27 27 25 23 23 23 22 23 22 22 21 20 20 19 19 19 19 20 20 18 20 19 17 17 16 17 18 18 17 14 13 17 15 11 13 7 13 11 10 11 10 10 11 13 17 14 9 9 9 8 7 7 8 8 7 6 6 5 6 7 9 10 16 13
27 28 30 31 27 29 27 21 17 16 19 14 10 10 12 15 10 21 24 24 24 23 23 19 24 23 26 28 30 30 31 29 27 25 27 25 25 23 23 22 21 23 22 20 19 18 18 18 15 17 17 18 16 16 17 18 19 17 18 19 17 12 16 16 13 12 11 13 13 11 10 7 9 11 10 8 13 9 14 10 10 10 10 9 9 9 9 9 10 10 10 8 9 12 18 20 16
28 27 30 31 25 21 11 10 10 15 17 11 12 9 11 14 19 17 25 24 26 27 28 24 25 25 26 28 29 30 29 29 26 25 24 24 24 23 21 21 21 21 21 21 20 18 17 16 15 16 16 16 16 18 17 19 17 17 18 17 16 15 13 12 10 9 10 9 11 9 8 8 9 10 9 9 9 12 14 10 12 11 12 12 11 12 12 11 12 11 12 12 10 13 18 18 13
26 32 31 26 27 27 15 13 12 12 10 12 12 11 16 16 19 19 21 24 28 26 25 26 26 28 29 28 30 29 29 27 27 24 23 24 23 21 21 20 20 20 21 20 19 17 17 16 16 16 17 16 15 17 15 17 16 16 16 15 14 14 14 13 12 9 9 8 9 8 8 8 8 13 12 13 12 13 11 12 14 14 13 13 16 13 15 16 16 16 17 17 19 18 17 11 11
23 29 27 27 15 17 12 16 12 10 8 12 12 15 18 13 19 19 23 24 25 26 26 27 28 28 30 30 30 29 29 27 26 25 25 24 23 22 21 20 19 18 20 19 17 18 17 17 16 17 16 15 15 16 16 16 16 15 16 17 14 12 12 11 11 12 12 9 7 8 7 6 5 6 9 13 14 15 18 20 17 15 15 9 16 12 13 14 14 14 12 13 15 15 11 11 10
31 26 27 27 14 18 14 13 12 13 17 19 18 15 14 15 19 18 20 23 15 19 25 29 29 29 28 29 30 29 28 27 27 27 26 25 24 22 22 22 21 21 21 21 20 19 18 17 18 17 17 16 15 15 16 18 17 15 16 15 16 14 13 12 12 10 10 8 7 7 7 6 6 5 6 7 7 7 8 9 9 9 9 9 7 10 8 11 11 11 10 12 11 13 12 11 10
28 28 23 24 14 20 13 15 13 16 16 15 15 11 19 14 20 20 23 15 19 16 20 27 29 26 30 30 27 28 27 28 27 26 25 24 22 22 22 21 20 19 20 20 21 20 19 18 18 18 19 18 17 16 17 16 17 17 15 14 12 12 13 12 12 10 9 9 7 6 6 7 6 6 6 6 7 7 9 11 8 7 7 7 8 10 12 15 8 9 9 11 12 13 12 11 10
29 34 18 17 21 21 15 15 17 17 17 17 14 18 18 18 20 17 22 18 14 18 20 27 28 27 29 27 28 27 27 27 27 25 23 24 22 21 20 22 21 22 22 20 21 20 20 20 19 20 20 19 19 19 16 16 16 15 15 14 14 11 11 12 11 10 8 8 7 7 6 7 6 6 6 6 7 7 7 7 6 6 7 9 8 7 10 9 9 9 8 12 13 12 12 11 14
29 27 18 16 17 19 21 18 19 16 19 17 19 19 19 19 19 19 18 17 16 15 22 26 31 30 29 28 29 28 27 26 26 25 24 23 22 22 21 22 22 22 21 21 21 21 21 21 21 21 20 21 20 17 16 17 17 16 15 13 15 12 12 11 10 9 7 7 7 6 7 6 8 6 6 6 6 6 7 7 6 6 6 6 8 7 8 9 10 10 10 11 14 13 13 12 10
24 28 26 19 17 17 19 23 21 19 21 17 22 19 21 19 20 24 16 15 19 19 22 23 26 28 28 28 30 28 28 25 25 23 24 21 23 22 22 21 21 22 22 21 22 22 21 21 21 21 19 17 19 18 17 17 16 16 15 15 13 12 13 12 9 8 8 7 7 6 6 6 6 6 6 6 5 6 6 6 6 6 6 7 7 8 7 9 9 10 11 12 13 15 15 16 14
12 21 25 21 17 19 16 20 21 21 24 19 21 22 17 20 20 20 20 19 17 23 23 25 25 27 30 29 28 26 25 20 25 23 24 24 25 24 23 24 22 23 22 22 21 21 22 21 21 20 20 20 17 17 17 17 17 16 14 14 14 12 12 10 10 9 8 8 8 7 7 6 7 7 7 6 6 6 5 7 6 7 8 7 8 8 9 9 10 10 12 10 11 13 13 13 13
19 18 27 25 22 27 22 23 22 20 24 22 22 20 21 22 28 20 22 19 18 20 24 26 26 27 27 27 27 25 26 22 22 22 22 23 21 22 22 21 23 23 22 20 22 22 21 20 21 20 19 17 16 17 16 15 17 16 15 14 13 14 12 11 11 11 10 10 9 7 7 7 6 6 6 6 7 7 7 6 7 7 6 8 8 8 9 9 9 10 9 10 11 11 13 13 13
19 19 24 25 28 30 25 24 24 24 23 20 22 31 26 27 23 24 28 26 21 18 22 24 24 20 24 23 23 22 22 22 20 17 19 18 18 21 22 21 20 20 22 20 20 20 19 18 17 17 16 15 16 16 13 16 16 16 14 14 14 14 12 11 10 10 10 10 9 8 7 7 6 6 6 5 6 6 6 7 7 7 7 8 8 9 9 9 10 10 11 11 9 12 13 13 13
30 22 25 31 30 34 29 32 27 28 24 21 24 31 28 27 24 28 18 20 28 28 26 23 22 20 19 16 18 17 19 16 11 14 13 15 17 20 20 19 17 16 19 19 19 18 16 16 15 15 15 15 16 17 18 17 15 16 16 14 15 12 12 12 11 10 10 9 9 9 8 8 7 7 7 7 7 7 7 6 7 7 8 8 9 8 11 10 10 10 10 13 12 13 13 13 14
29 30 33 31 32 25 30 31 30 31 28 24 24 34 19 22 20 15 17 22 23 23 16 15 18 18 18 20 20 19 16 16 19 11 13 15 21 15 13 16 17 18 17 15 16 14 13 11 12 11 12 13 15 15 16 12 17 14 16 13 15 12 13 13 11 11 9 9 9 10 10 8 7 7 7 7 8 8 8 7 8 9 9 9 9 10 10 11 10 12 11 12 13 13 14 15 15
32 32 25 32 31 27 31 33 29 31 28 25 30 23 19 19 13 21 16 17 19 21 19 18 20 22 20 16 19 18 17 14 10 15 19 21 22 13 20 19 17 14 12 10 12 11 11 13 10 10 9 11 12 12 14 15 17 16 16 16 14 13 12 12 12 10 11 11 10 12 11 10 9 8 7 8 9 10 10 9 9 9 9 10 10 10 11 10 10 11 12 11 12 14 14 15 15
34 33 32 27 31 33 29 29 28 30 27 28 29 28 17 22 21 21 17 20 19 24 23 19 17 14 18 21 24 21 20 17 16 14 15 15 14 13 19 19 16 14 11 9 11 12 12 9 12 12 10 11 8 15 14 16 16 16 15 16 13 14 12 13 12 12 12 11 11 12 11 11 10 10 10 10 9 9 9 9 9 10 10 10 11 11 11 11 10 12 13 13 13 14 15 15 15
31 32 31 31 31 32 25 36 32 29 28 26 26 26 23 20 22 22 21 22 21 22 25 23 20 19 18 21 23 23 20 20 19 18 21 14 12 15 18 16 14 10 9 11 9 15 13 13 13 13 12 16 14 13 14 14 13 13 16 15 15 14 14 13 12 13 12 11 12 12 12 10 10 10 11 10 11 11 9 9 9 10 11 11 10 10 10 10 10 11 12 14 14 15 16 15 16
28 29 32 28 30 36 34 31 32 32 29 30 27 29 19 21 22 23 23 22 22 25 23 22 20 21 21 17 13 18 26 24 21 21 21 18 12 13 15 15 12 12 11 11 11 13 10 9 13 11 10 12 13 14 17 15 13 14 14 14 14 14 14 14 13 14 12 13 13 13 13 11 12 11 11 11 10 11 11 11 11 11 11 11 12 12 12 12 12 12 12 12 14 14 14 15 15
26 28 30 33 26 29 28 19 29 32 29 30 28 28 23 19 21 22 23 22 23 24 26 22 21 21 21 20 18 18 20 22 22 25 24 21 20 18 19 14 14 12 11 13 11 11 12 11 10 8 12 16 13 12 13 11 12 12 12 13 15 13 14 14 16 15 15 16 15 14 13 13 13 13 13 13 14 13 13 13 13 14 15 14 14 13 14 14 13 13 14 13 14 16 14 13 14
27 28 31 32 28 30 23 18 24 32 27 27 24 29 22 21 16 12 14 18 23 23 23 23 23 21 21 21 22 22 20 20 21 25 24 22 22 20 19 18 11 13 15 12 12 11 11 12 11 10 13 10 10 12 9 12 10 11 11 14 13 14 14 14 15 15 14 14 14 14 14 15 14 15 14 14 15 15 15 16 16 17 18 18 17 17 18 19 19 18 18 18 15 15 16 13 15
25 28 30 32 32 26 25 22 26 26 29 23 21 22 25 25 24 16 18 19 21 20 20 24 24 23 23 23 23 24 24 22 22 24 24 25 23 21 20 17 14 11 11 12 11 12 14 13 11 13 13 13 12 13 11 14 14 13 14 15 13 16 17 16 16 14 13 14 13 13 14 13 14 15 16 15 16 17 16 16 17 17 18 19 18 18 18 19 19 19 19 20 21 18 16 13 12
26 27 32 34 29 33 29 23 26 27 32 21 21 19 23 25 23 25 23 21 21 20 20 20 21 26 25 25 24 25 25 26 24 26 28 27 24 23 19 17 17 14 12 10 11 10 13 16 14 12 13 13 12 14 15 16 17 17 16 16 16 15 15 14 13 13 12 12 15 16 16 15 15 16 16 16 17 17 16 16 15 15 16 16 15 15 16 18 18 18 19 18 19 21 21 20 18
26 25 27 32 31 25 23 27 29 25 25 22 22 18 17 24 27 27 22 24 21 22 20 20 21 20 23 22 22 24 25 24 26 26 27 27 25 24 21 20 18 17 13 11 9 13 13 14 14 13 13 12 13 13 14 14 15 16 15 14 13 15 15 14 12 12 12 13 15 15 17 16 17 18 18 19 17 16 16 16 16 14 14 15 15 15 15 16 16 16 18 18 18 19 21 22 20
29 27 23 25 22 25 23 27 28 32 32 28 28 27 25 22 22 22 25 28 25 23 21 21 23 23 24 23 23 22 21 23 24 26 26 26 26 25 24 25 23 18 13 10 12 14 14 14 14 13 15 14 13 13 12 11 11 12 11 13 13 13 14 13 13 11 12 12 14 14 16 17 18 18 18 18 18 16 16 16 15 15 13 15 15 14 14 15 15 15 16 16 18 18 20 20 21
28 32 27 23 24 28 28 31 31 34 37 32 30 30 23 25 26 26 25 23 24 23 24 25 24 27 25 25 24 23 22 24 22 24 25 25 24 25 24 24 21 18 14 13 14 15 13 13 12 13 15 14 14 13 12 12 12 10 9 9 12 11 14 14 13 12 12 12 13 13 13 15 17 17 16 15 15 15 14 14 14 14 14 13 14 13 14 15 16 16 17 17 17 17 18 19 19
29 22 20 18 20 29 28 30 31 28 23 25 31 35 25 25 28 30 26 26 25 25 27 27 27 25 24 24 24 23 24 22 25 25 25 25 26 25 25 24 21 19 14 12 12 12 14 14 14 14 15 16 13 13 12 13 12 10 10 10 12 15 16 14 12 11 11 10 11 13 11 13 14 15 14 13 14 14 13 13 13 13 13 14 13 14 15 15 16 16 16 16 16 17 16 17 18
24 27 25 18 20 23 26 31 31 28 26 29 32 31 36 26 24 30 28 27 27 27 27 28 28 25 24 25 25 23 22 23 24 28 28 27 27 26 26 25 22 20 14 12 12 13 13 14 15 17 18 14 14 13 12 13 13 12 11 10 11 12 12 11 11 10 10 9 12 15 14 13 14 13 15 14 14 14 14 14 14 14 14 14 14 15 14 15 15 15 15 16 16 17 16 17 17
18 24 23 21 19 21 26 30 29 28 29 28 29 32 38 29 22 30 30 28 30 29 27 28 29 29 26 27 23 22 21 21 23 24 26 25 24 24 23 25 23 18 14 13 12 12 14 15 17 16 15 15 14 13 13 13 12 11 12 11 11 11 10 10 9 10 8 9 14 13 12 12 12 13 14 15 15 15 15 15 14 14 14 15 15 15 14 15 14 14 15 15 15 15 15 16 17
19 21 26 26 25 24 23 26 30 28 29 30 25 28 32 35 30 33 36 39 29 28 28 25 28 30 26 23 23 23 23 26 25 23 23 24 23 23 23 22 22 18 13 13 14 16 15 16 16 16 14 14 14 14 13 13 13 13 13 12 10 11 10 9 9 9 8 9 12 12 11 13 13 13 13 13 14 14 14 15 15 15 15 15 16 16 16 16 14 14 15 14 15 16 16 16 15
20 29 32 28 27 22 24 27 27 34 33 28 29 30 30 35 30 35 32 27 33 31 29 30 30 30 28 24 24 24 25 26 26 26 24 24 23 22 22 22 20 20 17 16 16 17 16 16 16 15 14 14 14 13 12 12 12 12 11 11 10 9 8 9 8 8 9 12 11 11 13 12 12 12 12 14 15 15 15 15 15 15 16 16 16 16 15 15 15 15 16 16 16 15 16 17 15
24 26 31 30 31 30 31 30 33 32 32 24 30 29 32 38 19 27 29 31 34 33 35 33 31 29 28 27 24 24 25 26 27 25 25 24 24 26 24 23 20 19 21 18 18 16 17 17 15 15 15 13 14 13 13 13 12 12 12 12 11 11 11 11 11 11 11 11 11 12 12 12 12 13 14 14 14 14 15 15 15 16 16 16 16 15 14 15 15 13 15 14 15 15 16 17 16
30 33 34 33 35 32 25 30 26 28 29 20 28 33 36 21 27 30 30 29 29 31 34 33 31 28 28 27 25 26 27 26 26 25 24 24 26 25 24 22 20 19 18 19 18 17 17 17 15 15 14 13 13 13 13 13 14 13 12 12 12 13 13 13 13 13 12 12 12 13 13 13 13 13 14 14 15 15 16 16 15 16 16 16 16 14 13 14 13 14 13 14 13 13 14 14 14
34 27 33 29 29 36 26 31 32 29 28 26 20 25 31 27 17 21 23 26 28 28 33 34 33 29 26 26 27 26 24 23 25 25 25 25 26 23 23 22 21 19 20 20 18 17 17 17 16 15 14 13 13 13 14 14 15 13 12 12 13 12 14 14 14 14 14 14 14 14 13 12 13 14 16 14 14 14 14 16 16 16 16 16 16 16 15 14 14 13 14 14 13 13 13 15 14
31 31 27 31 33 25 29 19 24 29 30 25 31 27 18 20 17 15 19 23 24 24 27 34 34 31 30 28 31 29 26 25 26 25 25 24 24 23 23 22 21 20 19 19 18 18 17 17 16 15 14 13 13 13 14 14 14 14 14 14 14 13 13 14 15 13 14 14 14 14 14 12 14 15 14 15 14 15 14 15 16 17 16 16 16 16 16 15 14 14 15 16 15 15 14 15 14
34 34 37 31 23 24 16 6 11 9 23 29 16 28 23 21 18 17 21 23 25 26 30 33 33 31 28 27 30 26 28 28 26 25 24 25 24 22 23 22 22 21 20 19 18 17 17 17 16 15 14 14 14 15 15 14 15 15 14 15 15 15 15 15 16 14 14 14 14 14 14 14 14 14 13 13 14 14 14 14 15 16 17 16 16 16 17 16 15 15 15 16 16 15 14 14 15
31 39 30 22 25 25 26 23 17 23 27 23 26 27 28 28 28 24 21 25 25 29 32 30 30 28 28 28 30 31 30 29 26 24 23 24 24 23 23 22 21 21 20 19 19 17 17 16 15 15 15 16 15 16 15 15 15 15 15 15 15 15 16 15 15 15 14 14 14 14 14 15 13 13 13 12 12 13 14 14 15 16 16 17 17 17 17 18 16 17 16 16 17 16 15 15 16
26 30 19 38 32 29 26 23 26 29 27 25 29 26 29 29 24 32 27 29 29 29 31 33 32 32 31 28 29 30 29 29 28 26 26 26 25 24 24 22 22 20 20 20 21 19 16 14 14 15 16 16 15 15 15 15 14 15 15 15 15 15 16 16 15 16 15 16 15 15 15 13 12 12 12 12 12 13 14 14 15 16 16 17 17 17 17 18 17 17 16 16 18 18 17 17 16
28 20 33 29 21 25 24 27 17 28 22 19 26 26 27 27 26 29 30 30 32 32 33 32 35 33 31 30 29 30 30 28 29 28 27 27 25 24 24 24 24 23 22 21 19 19 17 16 16 17 17 17 17 17 16 15 15 15 16 16 16 17 17 17 16 16 16 16 16 15 14 13 12 13 12 12 13 14 14 15 15 16 16 17 18 18 18 18 17 17 17 18 19 18 19 18 17
34 24 30 33 28 18 23 25 29 26 25 25 22 25 26 19 23 30 30 29 30 32 35 34 37 33 30 29 30 28 29 28 29 28 27 27 25 24 25 24 25 23 21 20 20 19 18 17 18 17 17 18 18 17 17 17 17 18 17 17 17 17 17 17 16 16 16 15 15 14 14 13 13 13 13 13 13 14 15 15 16 18 18 18 19 19 19 18 18 18 18 18 19 20 20 19 19
29 28 27 28 29 28 30 26 28 31 28 24 26 26 19 16 15 25 25 28 28 31 32 33 33 33 30 29 28 27 30 27 27 27 27 26 25 25 24 25 22 22 21 19 20 18 16 16 18 19 18 18 18 19 18 19 17 18 17 17 16 16 17 16 15 15 15 16 15 14 13 13 13 13 14 15 14 13 14 15 17 19 20 20 19 19 18 18 18 18 18 18 19 20 20 19 18
Wind_Speed
11 8 7 8 8 10 10 5 8 3 8 11 11 9 10 0 7 11 9 6 6 10 6 9 5 6 7 9 5 11 14 7 5 7 3 6 8 13 15 16 17 16 16 14 13 13 13 15 15 15 15 16 16 16 15 15 14 14 13 12 11 11 10 9 8 8 8 9 9 10 11 11 12 13 13 13 13 12 12 11 11 11 12 13 12 11 12 13 13 13 13 13 12 13 12 11 11
8 7 7 7 7 9 4 5 7 10 10 12 13 12 9 4 6 6 5 8 8 10 9 8 6 6 7 9 4 7 18 14 12 11 11 9 11 12 16 16 17 17 14 13 13 13 13 14 15 15 14 15 15 15 14 14 14 13 13 12 11 10 9 8 8 9 9 10 10 11 11 12 13 13 13 14 13 13 12 12 11 11 12 12 11 11 12 12 12 12 12 12 13 12 11 10 10
8 7 7 6 8 8 7 6 10 11 11 11 11 11 7 10 10 7 8 8 9 9 7 5 6 6 7 4 8 4 7 10 12 13 10 13 14 10 15 16 17 17 16 12 13 13 11 13 16 15 14 15 15 15 14 13 13 12 12 11 11 10 9 9 10 10 10 11 11 11 12 13 13 14 14 14 14 14 13 12 12 11 12 12 11 11 11 11 11 11 10 10 9 9 9 9 8
10 7 7 5 6 4 6 6 10 12 13 12 11 10 9 9 6 6 6 6 5 5 2 4 8 9 8 7 9 12 8 6 10 11 10 10 10 12 14 16 18 14 14 12 13 12 11 14 15 14 14 14 14 15 14 13 13 13 12 11 11 11 11 11 11 11 11 11 11 12 13 13 13 13 14 14 14 14 13 12 11 12 12 11 11 11 10 10 11 11 9 8 7 8 8 7 7
10 6 5 6 6 6 6 6 9 9 12 10 12 14 11 4 5 2 2 5 3 3 3 4 6 5 7 9 5 2 5 7 10 8 10 12 14 14 15 16 15 14 13 14 13 12 13 17 13 12 13 14 14 14 14 13 13 12 12 12 12 11 12 12 11 12 12 12 13 13 13 13 13 13 13 13 14 14 13 12 11 12 11 11 11 10 10 9 10 10 9 8 7 6 6 5 5
8 7 6 5 5 6 7 10 12 14 13 12 15 16 11 4 3 3 2 4 3 5 4 6 7 3 5 9 7 8 3 2 8 10 11 12 16 16 14 14 14 12 14 13 13 11 13 15 13 12 12 13 14 14 13 13 13 12 12 12 12 12 12 13 12 13 13 13 13 13 13 12 12 13 14 13 13 13 13 12 11 10 9 9 9 9 9 9 9 8 8 6 6 5 4 4 4
6 5 6 7 8 6 9 12 14 14 13 14 13 12 14 5 4 4 6 4 5 4 2 4 3 4 7 7 10 10 10 6 7 8 11 14 16 16 14 13 13 14 14 12 12 13 16 12 12 13 12 13 14 14 13 13 12 11 12 13 13 13 13 13 13 14 13 12 13 13 12 12 13 13 13 13 12 12 11 11 11 10 9 8 8 7 7 8 8 6 6 6 4 4 3 3 4
6 7 5 7 7 7 10 11 14 13 13 18 13 15 13 6 2 4 8 3 2 7 8 4 6 7 9 8 6 4 9 11 14 14 16 14 16 16 14 13 13 14 13 13 13 12 16 12 12 11 12 12 13 13 13 13 11 11 12 13 13 13 14 14 14 13 13 13 12 12 12 12 12 12 12 13 12 11 11 11 10 10 8 8 7 7 6 7 7 5 5 5 3 3 3 3 3
7 8 5 8 11 9 13 14 14 14 15 16 14 14 6 10 4 6 7 5 6 7 4 5 5 4 2 9 7 6 7 9 13 15 15 14 15 15 11 13 13 13 13 15 13 13 14 13 12 12 13 11 13 13 13 12 11 11 12 13 13 14 14 14 13 13 12 11 11 11 12 12 12 12 12 12 11 11 11 11 10 8 8 8 7 7 6 6 6 6 4 3 3 2 3 1 2
8 6 7 7 8 14 13 14 15 12 15 16 13 7 5 8 8 8 8 9 7 2 3 2 3 9 8 8 8 5 7 11 13 13 14 14 13 13 13 13 15 16 14 14 14 13 12 15 12 11 11 13 12 13 12 12 12 11 12 13 13 13 14 13 12 12 11 11 11 11 11 11 11 11 11 11 10 10 10 9 9 8 7 7 6 6 6 5 5 6 4 2 3 3 2 2 2
8 8 7 11 12 13 14 14 15 14 18 15 7 8 3 6 9 9 9 9 6 6 5 2 8 11 9 8 6 5 10 12 14 14 13 13 13 13 13 13 15 14 14 16 15 14 14 13 15 12 11 10 10 12 14 14 13 12 12 13 13 13 13 13 12 11 11 11 11 11 11 11 10 10 10 10 9 9 9 8 8 8 7 6 5 5 5 5 5 4 3 2 2 2 2 0 1
10 9 8 11 13 14 14 14 15 14 19 1 7 7 6 8 7 9 10 10 8 7 6 8 5 11 11 8 5 8 11 12 13 13 12 12 11 14 13 12 14 14 15 16 16 14 14 13 13 13 11 11 13 14 13 13 13 13 12 13 13 13 13 13 12 11 11 10 10 11 10 10 10 10 10 9 8 8 7 7 7 7 7 6 6 5 5 5 5 4 3 2 3 2 1 1 3
11 9 11 11 11 14 16 18 15 17 14 6 9 8 5 7 8 8 9 9 9 7 8 9 10 10 8 6 7 10 12 12 12 12 12 11 12 11 12 12 12 14 14 16 16 16 15 13 12 12 13 15 13 13 13 13 13 13 12 12 13 12 12 12 11 11 10 10 10 10 10 10 10 9 9 8 7 7 7 7 7 7 6 6 5 5 5 4 5 4 3 2 2 2 1 1 4
10 10 10 13 12 15 16 15 14 12 11 12 7 10 5 6 7 9 7 10 11 10 7 8 9 13 11 11 9 11 11 12 13 12 10 12 11 12 13 12 13 13 14 15 16 15 14 13 13 13 13 12 12 12 13 13 13 12 12 12 13 12 12 11 11 10 10 10 10 9 9 9 9 9 9 8 7 7 6 7 7 6 6 7 6 4 5 4 3 4 2 1 1 2 2 1 3
11 9 10 11 12 13 14 13 14 14 12 12 13 7 6 6 6 6 9 9 11 9 5 9 8 11 8 9 9 12 13 14 14 12 11 12 11 12 13 12 12 12 13 14 14 14 13 13 13 13 12 12 12 9 9 11 12 13 12 13 13 12 11 11 11 10 10 10 9 9 10 9 8 9 9 8 7 6 7 8 7 7 6 6 6 6 4 3 3 2 2 1 1 2 2 1 4
9 9 9 10 13 14 13 13 14 17 12 5 7 3 4 5 6 8 9 10 6 8 7 8 8 5 12 10 11 17 17 16 14 13 12 12 11 11 12 12 11 12 12 12 11 11 12 11 11 11 11 11 10 10 10 10 11 12 13 13 12 11 11 11 11 11 10 9 8 8 9 10 10 8 8 9 7 6 4 7 6 6 6 6 6 6 5 3 2 2 1 2 1 2 2 2 4
8 9 10 11 13 14 13 14 12 11 12 10 5 7 5 7 8 8 7 10 11 10 9 7 7 11 8 10 16 20 19 16 13 14 15 13 10 9 10 10 10 10 9 11 11 11 11 11 11 10 10 11 12 11 9 9 10 12 12 12 12 10 11 11 11 11 11 9 8 8 8 8 5 7 9 7 10 7 7 5 5 5 5 6 6 5 5 3 2 1 1 2 3 4 5 4 7
9 10 11 13 12 15 12 17 12 9 9 7 5 4 4 6 8 8 6 10 12 7 13 7 9 13 15 18 20 20 20 19 17 17 15 13 11 10 11 10 11 10 10 10 10 11 10 10 11 11 10 12 10 9 8 7 7 10 10 10 9 10 10 10 10 7 7 6 6 6 4 4 3 4 3 6 6 8 7 7 6 6 5 5 5 5 5 5 4 4 3 4 5 7 8 6 6
10 10 11 13 12 12 16 10 9 3 8 4 2 2 5 6 2 7 9 12 13 11 11 10 14 12 16 18 20 19 20 19 18 16 17 16 13 13 11 10 11 11 10 9 9 10 9 9 8 9 10 10 10 9 7 8 10 8 9 9 7 8 9 9 6 6 4 6 6 4 3 1 2 4 3 2 6 7 8 7 8 7 6 6 6 6 7 7 7 7 7 6 7 9 8 8 5
13 11 12 13 13 9 4 1 2 5 8 3 5 2 2 5 7 6 10 12 15 14 12 12 14 13 14 17 18 18 19 19 16 16 16 15 14 13 12 12 11 11 11 10 9 8 8 8 8 8 9 8 8 7 8 8 8 8 8 7 7 6 6 5 4 4 3 3 4 3 2 3 3 3 5 4 6 5 6 8 10 8 7 9 9 7 8 9 9 9 8 9 7 8 7 8 5
10 13 12 11 15 14 7 2 4 4 2 4 3 4 5 7 9 8 10 13 15 13 14 15 16 18 17 16 18 18 18 18 18 15 15 15 15 12 11 10 10 10 10 10 9 8 9 8 9 9 9 8 9 8 7 7 7 7 7 6 6 6 6 5 4 3 3 2 2 3 2 2 2 5 3 2 2 2 3 5 5 6 5 5 11 6 6 6 7 6 6 7 7 8 8 5 4
9 14 15 16 3 8 3 8 5 3 0 5 5 7 9 5 9 10 12 12 10 12 15 15 17 15 19 18 18 17 18 17 17 17 16 16 15 13 12 11 11 10 10 9 9 9 9 9 9 9 8 8 8 8 7 7 7 6 7 8 6 4 4 4 4 4 4 4 2 2 2 1 0 0 4 6 6 7 7 3 3 4 7 5 8 3 5 6 5 3 5 5 5 6 4 4 4
12 13 16 16 6 8 4 4 5 6 7 10 9 6 6 5 9 9 11 13 4 9 15 17 17 18 15 16 17 18 18 18 17 17 17 16 15 14 12 12 11 10 9 10 9 9 9 10 10 9 9 7 8 8 7 8 7 6 6 6 7 6 5 4 4 3 3 3 2 1 1 0 0 1 1 2 1 1 1 1 4 4 3 4 0 1 3 4 4 4 3 5 5 5 5 4 4
13 10 11 14 7 11 3 7 6 8 9 7 7 4 9 6 11 10 12 7 10 5 12 17 18 16 17 18 18 18 18 18 18 17 16 15 15 13 13 12 10 10 10 11 10 10 9 10 10 11 9 9 8 8 9 7 8 8 6 6 4 5 5 5 5 3 3 3 2 1 1 1 1 0 1 0 2 2 2 1 2 2 1 1 2 2 4 7 4 2 3 5 5 5 4 4 4
14 15 10 8 11 11 7 7 6 9 9 8 6 9 9 10 10 7 12 7 6 10 9 17 14 17 17 18 17 17 17 18 17 15 14 13 14 13 12 11 12 11 12 11 10 10 11 10 11 12 11 11 9 9 8 7 6 7 7 6 6 5 4 4 4 4 3 2 1 0 0 1 1 0 1 1 2 1 1 1 1 1 2 3 2 2 4 3 2 3 3 3 5 5 5 4 5
15 15 10 7 9 11 12 9 10 9 7 8 10 10 10 10 11 8 9 9 8 7 13 15 20 19 18 16 17 18 17 17 16 16 14 13 13 14 13 11 11 12 11 11 11 11 11 11 12 11 11 11 10 9 7 7 7 7 7 6 7 5 4 3 4 3 1 2 2 0 1 0 1 1 1 1 1 0 1 1 1 1 1 1 2 2 2 3 4 4 4 4 5 6 5 4 3
13 17 16 10 9 9 11 13 12 10 11 9 11 10 11 11 10 9 7 7 7 8 10 13 17 17 15 15 17 17 17 16 16 13 13 13 13 13 13 12 12 12 12 12 11 10 10 12 11 11 11 10 10 9 8 8 8 8 7 7 5 5 5 5 3 2 3 2 2 1 0 1 1 0 1 1 0 1 0 1 1 1 0 1 2 2 1 2 2 3 4 4 5 5 4 7 5
3 10 15 13 9 10 8 11 12 10 11 11 11 12 8 11 8 7 8 6 7 10 11 11 12 15 15 18 17 15 13 12 14 14 15 14 12 12 12 11 12 13 12 11 10 10 11 11 11 12 11 10 9 9 8 8 8 7 7 6 6 5 5 4 4 3 2 2 2 2 2 0 0 1 1 1 0 1 1 2 1 1 2 1 1 2 3 3 4 4 4 4 4 5 5 5 6
11 10 13 15 13 12 11 12 13 11 10 13 12 11 11 10 13 11 12 5 7 7 10 12 13 12 16 15 11 11 12 10 11 10 13 12 11 10 13 11 12 12 10 11 10 11 11 11 10 10 10 9 8 8 8 7 7 7 7 6 6 6 5 4 4 4 4 3 3 2 2 1 0 1 1 1 1 1 1 1 1 1 1 2 2 2 4 4 3 3 3 3 4 4 5 6 6
10 9 11 13 14 14 15 14 14 13 11 11 11 12 11 7 14 11 12 9 14 6 2 2 2 2 9 10 8 4 9 9 7 3 8 9 10 11 12 11 11 10 8 8 10 11 8 6 6 6 7 7 6 5 5 7 7 7 5 5 6 6 5 4 4 4 4 3 3 3 2 2 1 1 1 0 1 1 1 1 1 1 1 2 2 2 3 3 3 3 4 4 3 4 5 5 5
12 11 11 12 12 13 17 15 16 16 12 12 14 12 6 12 12 14 8 12 19 14 13 14 10 10 9 6 6 5 11 7 3 6 2 3 8 10 11 9 8 8 8 8 9 9 6 5 4 4 5 4 3 4 4 3 5 6 4 5 6 5 5 4 4 3 3 3 3 2 2 2 1 2 1 2 2 2 1 0 1 1 2 2 3 2 3 4 3 3 3 5 4 5 5 5 6
12 11 14 13 14 10 17 18 19 16 13 14 14 14 6 8 7 6 6 12 15 14 9 8 8 7 6 9 8 9 6 8 8 6 7 8 10 7 6 7 8 10 6 4 6 5 5 3 3 3 1 4 3 3 2 2 4 3 8 5 6 5 5 5 4 4 3 3 3 3 4 3 2 2 1 1 3 2 2 2 2 3 3 3 2 3 4 4 3 4 4 4 5 5 6 6 6
13 14 12 15 14 12 13 20 18 19 13 15 17 7 6 7 6 4 4 8 10 9 8 9 11 13 11 8 10 10 9 9 4 9 11 7 4 7 12 11 8 6 1 1 4 5 5 2 3 3 4 3 1 1 4 3 7 4 6 7 7 6 5 5 5 4 4 4 4 4 4 4 3 2 2 3 3 3 3 3 3 3 3 4 3 3 4 3 3 4 4 4 5 5 6 7 6
13 14 13 13 16 16 11 17 16 18 17 13 16 11 7 11 11 12 9 7 11 12 13 11 10 7 10 11 14 11 10 10 9 5 7 3 4 8 11 11 7 2 1 4 5 5 5 2 0 2 4 4 2 6 6 6 7 7 7 6 6 6 6 6 5 4 5 4 4 4 4 4 3 3 4 4 3 3 3 3 2 3 4 3 4 4 3 3 4 4 5 5 5 6 6 7 7
13 14 14 13 16 19 12 14 17 17 18 14 14 14 12 10 12 12 11 11 10 12 12 12 11 10 9 8 13 13 9 9 11 11 10 9 5 7 10 9 8 5 3 5 5 4 5 5 3 4 3 3 2 6 7 8 6 6 7 7 7 6 6 6 5 5 5 4 5 5 5 4 3 4 4 4 4 4 3 3 3 4 4 4 3 4 4 3 3 4 4 6 5 6 8 7 7
16 17 15 14 14 16 15 14 16 19 16 15 15 9 8 11 11 12 13 12 12 14 12 10 10 11 12 8 7 10 14 14 12 12 14 11 7 6 8 7 7 5 4 3 4 4 2 4 4 3 3 1 5 8 7 5 4 5 6 6 7 6 6 6 6 6 5 5 5 6 5 5 5 4 4 4 4 5 4 4 5 5 5 5 5 5 4 4 5 5 5 6 7 7 6 6 7
15 16 16 17 13 14 16 11 17 18 14 16 15 16 9 9 12 9 11 10 12 14 15 11 9 11 11 9 9 10 12 13 12 14 13 13 13 9 9 8 6 7 5 7 6 3 4 2 3 3 1 0 4 4 6 1 5 5 5 6 6 5 5 6 7 7 6 7 7 6 6 6 6 6 6 6 7 6 6 6 6 7 7 6 6 6 7 7 7 7 7 6 7 7 6 5 6
16 15 16 15 14 13 11 6 14 17 13 13 14 17 10 9 8 4 1 8 13 12 13 14 14 12 10 12 13 13 11 11 12 13 14 15 13 13 11 10 8 8 6 6 7 6 5 6 4 3 2 1 4 4 3 3 4 4 4 5 5 5 6 5 6 6 6 6 7 7 7 7 7 7 7 7 7 8 7 7 7 8 9 8 8 9 10 10 10 9 8 8 7 7 7 6 6
13 13 14 15 13 12 15 11 11 13 14 10 12 11 9 8 9 7 7 6 4 8 11 12 14 12 12 12 14 14 14 13 13 13 13 14 15 13 12 10 8 7 7 7 6 6 5 4 3 0 2 4 2 2 2 4 5 6 5 6 5 6 7 7 7 6 6 6 6 7 7 7 7 7 8 8 7 8 8 8 7 7 8 8 8 8 8 8 8 9 10 9 9 8 7 6 6
12 11 12 15 13 16 12 11 15 12 12 7 10 8 11 10 7 10 9 9 10 9 9 12 12 13 14 15 14 14 15 14 15 15 15 14 14 13 11 10 9 8 7 6 4 5 4 3 3 4 5 7 6 4 5 7 8 9 8 8 8 7 6 7 7 6 6 6 7 8 7 7 7 7 8 8 7 8 8 7 6 6 7 7 7 6 8 8 8 9 9 9 9 9 9 9 9
13 14 12 14 17 12 9 10 14 14 14 8 10 7 6 12 12 9 11 13 10 13 12 10 10 11 13 13 13 14 15 14 15 15 15 15 15 14 13 12 10 9 7 5 4 5 4 5 5 5 2 4 6 5 6 6 7 7 7 7 6 7 7 6 6 5 6 6 7 7 7 7 8 8 9 10 8 8 8 8 7 6 6 7 6 7 7 7 8 8 9 9 9 9 10 9 10
13 16 13 14 13 13 13 13 16 11 14 13 14 7 8 9 9 11 13 12 12 12 12 12 11 12 13 13 13 12 13 14 14 16 15 15 15 15 14 15 14 10 6 5 3 4 6 4 6 6 3 6 6 6 5 5 5 5 5 4 5 5 6 6 6 5 5 6 6 6 8 8 9 9 9 9 9 8 8 8 7 7 6 6 7 6 6 7 8 8 8 8 9 10 9 9 9
13 13 16 14 13 15 16 17 15 13 14 14 16 12 6 9 13 12 12 13 14 12 11 12 12 12 11 12 13 12 13 14 13 14 15 15 15 15 15 14 13 11 8 6 1 3 6 5 6 7 6 5 7 7 6 5 6 4 3 3 5 5 6 6 6 5 5 5 6 6 6 7 8 8 8 7 7 7 7 7 7 7 6 6 6 5 5 7 7 7 7 8 8 7 9 8 9
11 13 12 7 10 17 17 17 15 10 11 12 16 13 9 9 12 15 14 14 14 14 14 14 13 14 13 13 13 13 13 13 13 14 14 15 16 15 15 15 13 11 9 6 5 6 7 7 7 8 8 7 6 5 6 6 5 5 5 5 6 7 7 7 6 5 5 5 6 6 5 6 7 7 6 6 6 6 5 6 6 6 6 6 5 6 6 6 7 7 7 8 7 7 8 7 9
9 13 14 9 7 13 12 14 13 12 12 12 13 17 13 10 10 18 15 15 15 15 16 16 15 14 14 14 14 14 13 14 14 13 15 15 16 16 16 15 13 12 8 6 7 7 7 7 8 10 9 7 6 7 6 6 5 5 4 4 5 5 5 5 4 4 5 4 7 7 6 6 6 7 7 6 6 6 6 6 6 6 6 6 6 6 6 6 7 6 7 7 8 8 7 8 8
8 14 13 10 9 9 14 13 13 12 11 12 14 16 13 10 8 10 13 14 16 15 15 16 16 13 14 15 14 13 12 13 13 14 14 14 14 14 14 15 14 10 8 7 7 6 6 8 9 9 8 7 7 7 7 7 7 5 5 5 5 5 4 4 4 4 4 5 7 6 5 5 5 6 6 7 6 6 6 6 6 7 7 7 6 6 7 7 6 6 7 7 7 8 7 7 7
10 11 13 12 10 10 10 11 11 11 11 13 14 17 15 11 11 13 15 14 14 13 12 13 16 16 14 14 13 13 13 14 13 14 13 13 12 14 14 14 12 10 8 7 7 8 8 8 9 9 8 7 7 7 7 7 6 6 5 6 5 6 5 4 4 4 3 4 6 5 5 6 5 5 5 6 6 7 7 7 7 7 7 7 7 7 7 6 6 7 7 7 8 8 7 8 7
11 10 12 11 12 9 10 10 10 12 12 12 15 15 17 14 11 16 14 14 15 14 16 15 16 18 16 13 13 13 14 14 15 14 14 14 14 13 13 13 12 12 10 8 9 9 8 9 9 9 8 8 7 6 6 6 5 6 6 5 5 4 3 3 4 3 4 6 5 5 5 5 5 5 5 6 7 7 7 7 7 7 7 7 7 6 6 6 6 7 7 7 6 7 7 7 7
10 12 14 13 10 8 10 10 12 11 11 10 15 17 14 16 8 8 18 17 18 17 14 16 16 17 15 15 14 13 14 16 15 14 14 13 13 14 14 14 12 12 11 10 10 9 9 9 9 9 8 7 7 6 7 6 6 6 6 6 6 5 5 5 5 6 6 5 5 5 5 5 5 5 6 6 7 7 7 7 7 7 7 7 7 6 6 7 6 5 6 6 6 6 7 7 6
14 14 14 13 12 12 9 12 7 9 12 10 12 18 14 8 10 17 17 16 17 19 16 16 18 17 16 15 14 14 14 15 14 14 13 13 14 14 14 13 11 10 11 10 10 9 9 8 9 8 8 7 6 7 6 7 7 6 6 6 6 6 6 6 5 6 6 5 5 6 5 5 5 5 6 6 6 7 7 7 7 7 8 7 7 6 6 7 6 5 6 6 5 4 5 6 6
15 13 14 12 11 9 9 10 11 12 10 12 5 9 8 13 2 11 13 14 15 15 17 19 18 17 16 14 14 15 14 13 14 13 13 14 14 14 12 12 11 11 11 10 9 9 9 9 8 9 8 7 7 7 7 7 7 6 6 6 6 6 6 6 6 6 6 7 6 6 5 5 5 6 6 6 6 7 7 7 8 8 7 7 7 7 6 6 6 5 6 6 5 5 6 7 5
13 13 12 13 13 10 11 6 9 12 11 10 12 6 7 4 3 2 9 13 14 15 18 21 20 17 17 15 14 14 12 12 13 14 14 15 14 13 12 12 12 11 12 10 10 9 9 9 9 8 8 7 7 7 7 7 7 7 8 7 7 7 6 7 6 6 6 7 7 6 6 5 6 6 6 6 7 7 7 7 7 8 7 7 7 8 7 6 6 6 6 7 7 5 6 7 7
13 14 15 13 11 11 5 1 2 5 5 10 4 9 7 6 5 5 9 12 14 13 17 20 19 19 17 15 16 15 15 14 13 13 13 15 14 13 12 13 12 12 11 10 10 9 9 9 9 9 8 8 8 8 7 7 8 8 8 8 8 8 8 8 7 8 8 7 7 6 6 6 6 6 5 5 6 6 6 6 6 7 7 7 7 8 8 7 7 6 6 7 7 7 6 6 7
10 14 13 11 11 12 8 7 5 8 10 6 11 12 12 9 6 10 10 13 14 15 18 15 17 17 17 14 16 14 16 14 15 14 13 14 14 14 13 12 13 12 12 12 11 10 9 8 9 9 9 9 8 8 8 8 8 8 8 8 8 8 8 8 7 8 7 7 7 6 6 6 6 5 5 5 5 6 5 6 6 7 7 7 8 7 8 8 7 7 7 7 8 8 7 7 7
11 13 9 12 10 13 10 5 10 11 10 6 12 13 12 11 8 15 15 15 16 18 18 18 19 18 17 17 17 16 17 16 15 15 14 14 14 13 14 14 13 13 12 12 11 10 9 8 8 8 9 8 8 7 8 7 7 7 7 8 8 8 7 7 8 8 8 7 7 7 6 6 5 5 5 5 5 5 5 5 6 6 7 8 8 8 8 7 8 7 8 7 8 8 7 8 7
17 11 15 14 8 10 9 6 7 9 9 7 11 13 8 11 9 17 17 18 18 16 17 17 20 19 17 15 16 18 17 16 16 15 14 14 13 14 14 14 14 14 13 12 11 10 10 9 9 9 9 9 9 9 9 8 8 7 8 8 8 8 8 8 8 8 7 7 7 7 7 6 5 5 5 5 5 5 6 6 6 7 7 7 8 8 8 8 7 8 8 7 8 9 9 8 8
14 8 11 12 8 6 7 9 10 9 8 8 6 8 9 6 10 16 18 17 18 18 18 19 19 18 18 18 16 16 15 15 16 16 15 15 15 15 15 14 14 13 12 11 10 11 9 9 10 10 10 10 10 9 9 9 9 9 9 9 9 9 9 8 8 8 8 7 7 7 6 6 5 5 5 5 5 6 6 6 7 8 8 8 8 8 8 8 8 8 8 8 9 9 9 8 8
12 10 11 12 12 11 13 10 11 10 8 7 9 9 7 6 2 12 13 15 16 17 19 16 20 20 17 16 17 15 16 17 17 16 16 14 15 15 15 14 13 12 12 12 11 10 9 9 9 9 9 9 9 9 9 9 9 9 9 9 8 8 8 7 8 8 8 7 7 6 6 6 6 5 5 5 5 4 5 7 7 8 9 9 9 9 9 8 8 8 8 6 8 9 9 9 8
Wind_Direction
273 266 305 300 296 279 284 269 284 289 261 268 278 272 295 138 337 284 297 351 299 77 330 320 309 294 293 332 48 78 26 360 23 261 84 130 151 137 131 138 129 125 126 124 126 130 127 121 122 122 120 117 116 116 117 117 117 117 116 116 116 117 113 114 111 99 98 101 101 101 93 85 87 84 82 80 80 79 84 90 92 95 99 106 111 113 101 97 104 101 98 97 94 93 88 86 86
302 314 289 280 278 277 262 348 294 281 259 262 255 248 268 20 274 285 4 358 10 347 332 326 312 315 324 282 23 128 52 50 67 79 93 120 131 123 128 130 128 125 124 130 133 129 123 124 123 124 122 119 118 117 119 120 119 120 121 122 120 118 119 119 112 107 105 103 100 93 91 87 87 85 83 82 80 82 82 89 91 94 96 101 105 103 102 109 104 101 99 98 91 87 85 89 91
304 295 275 242 247 256 289 268 271 273 276 274 271 264 305 271 295 6 13 6 351 342 354 286 333 286 270 229 265 35 84 66 83 96 104 130 133 125 136 135 127 124 130 137 130 122 123 125 127 126 124 122 120 119 120 119 120 121 122 122 124 125 126 116 113 111 105 102 100 98 92 90 87 87 87 83 81 81 83 87 95 95 98 98 94 95 102 102 102 102 99 99 94 81 84 87 93
278 273 281 300 286 226 286 283 251 265 267 263 266 284 269 314 333 3 35 8 339 319 304 261 261 56 316 312 77 108 78 77 76 113 125 144 130 138 134 128 129 132 138 134 130 120 118 128 128 126 124 122 119 117 118 120 121 122 124 124 124 120 113 115 112 110 105 102 99 94 93 91 90 89 87 85 82 80 83 90 93 95 94 92 94 99 99 100 101 98 98 95 90 83 87 89 93
263 245 251 272 295 269 275 273 283 282 270 279 281 292 320 6 359 345 61 1 303 277 253 330 281 103 65 25 10 99 102 134 137 135 106 113 126 134 137 133 136 140 137 129 120 116 121 128 126 123 124 122 119 118 116 117 119 121 121 120 116 115 115 111 110 109 105 104 99 97 97 96 96 92 87 85 82 81 77 83 89 89 88 89 89 91 89 89 91 91 84 81 83 86 85 101 103
243 263 194 252 257 8 288 263 258 255 257 264 265 266 258 20 43 56 29 280 17 265 342 280 301 122 129 56 29 77 331 131 92 80 112 122 131 135 135 133 137 138 128 119 119 121 127 128 124 124 124 121 117 112 111 110 116 122 121 118 115 113 112 112 112 107 105 103 101 99 96 94 91 90 89 87 85 82 80 78 75 77 84 90 94 94 92 93 94 92 92 86 77 81 79 88 125
244 232 207 227 239 239 256 262 266 271 265 264 268 273 288 41 313 314 281 252 191 283 168 266 208 124 143 122 84 42 41 78 114 112 115 132 130 135 136 139 139 125 123 122 120 120 124 121 122 126 126 123 117 115 115 114 118 122 118 115 113 114 113 111 110 106 104 103 101 98 96 95 94 89 87 86 85 84 85 83 84 87 87 86 86 93 102 94 86 87 97 91 81 67 85 99 119
265 274 228 233 268 220 236 252 258 256 264 264 277 277 289 320 120 257 288 288 136 250 158 210 216 248 86 181 81 68 48 35 90 111 119 136 138 140 142 138 130 129 126 116 111 114 124 121 123 124 124 126 122 116 115 115 119 121 117 115 113 114 113 111 108 106 104 102 100 96 96 95 90 89 86 86 86 86 86 85 83 86 89 89 87 88 90 102 90 87 91 93 70 48 50 89 126
228 235 263 276 258 257 265 260 263 262 268 262 249 259 297 292 205 256 264 250 295 257 264 216 181 186 56 64 76 85 83 90 99 119 130 138 144 138 137 134 132 125 122 113 113 125 126 122 123 123 129 125 121 118 115 116 116 116 115 116 114 112 112 111 109 106 101 97 95 93 93 90 89 87 87 88 87 86 83 83 81 80 83 88 87 87 89 96 106 98 92 93 80 38 35 65 123
233 216 227 240 260 263 263 261 259 250 253 252 269 280 229 235 230 231 254 250 256 21 197 45 187 109 132 118 112 132 115 122 124 132 138 142 137 133 132 133 130 125 122 123 125 123 124 125 121 126 130 125 122 116 112 108 108 112 116 115 113 115 115 112 108 104 103 99 96 95 93 90 91 89 88 86 89 89 85 84 84 81 80 81 87 96 98 95 103 110 97 74 52 40 18 43 129
238 194 258 261 251 257 259 263 262 267 257 243 238 254 267 242 243 238 226 250 261 239 138 189 207 146 121 92 101 118 132 140 136 136 138 134 135 131 128 130 127 131 131 130 127 124 129 128 123 124 126 119 106 100 102 104 106 108 114 116 118 119 118 113 108 106 104 102 98 98 94 94 92 90 88 86 86 84 83 84 87 88 85 83 90 98 111 114 101 94 86 36 21 26 36 116 120
238 225 204 237 251 258 261 265 263 260 265 73 255 224 191 238 231 239 234 234 233 225 231 178 186 140 127 135 134 144 141 136 135 133 133 135 135 132 130 130 134 134 132 128 129 132 127 130 131 125 108 104 106 103 99 98 101 108 114 118 119 118 117 114 111 107 104 102 98 94 93 94 93 92 87 87 88 86 86 88 91 95 90 87 89 94 100 109 110 96 79 37 4 1 60 137 171
240 237 228 242 248 253 259 262 266 272 286 256 243 180 171 214 224 231 248 242 236 221 222 199 113 144 137 128 132 145 145 139 133 137 140 137 133 133 130 129 132 134 132 134 132 132 136 131 130 137 119 106 102 98 96 96 100 104 116 121 120 120 119 116 110 108 104 100 100 94 95 95 94 91 92 95 95 88 82 80 93 95 90 90 93 99 107 115 113 100 80 47 15 340 343 142 188
230 239 245 248 249 254 260 266 267 262 252 262 223 119 180 213 216 248 244 234 227 225 213 147 148 99 102 123 158 159 146 143 136 135 135 133 134 133 133 131 133 134 134 132 134 139 137 135 136 133 138 134 126 111 98 99 99 103 113 122 120 118 118 116 113 111 107 107 105 106 104 104 103 104 104 98 89 89 90 87 91 95 98 97 95 99 106 103 118 103 92 90 19 326 323 205 196
238 233 251 258 255 256 254 255 259 261 261 270 96 171 168 200 255 234 243 246 226 222 173 145 145 162 151 174 162 163 148 147 139 139 136 131 135 130 131 134 134 130 132 137 138 134 137 137 140 143 142 137 137 130 131 109 105 105 112 121 119 119 121 120 118 118 117 111 109 118 117 123 124 127 129 123 114 107 103 105 76 81 95 104 102 100 112 122 114 119 118 150 202 317 314 233 203
237 242 237 243 244 250 252 243 243 261 270 118 126 162 204 197 190 236 231 253 248 181 121 168 177 81 155 185 174 147 147 147 142 140 135 132 134 136 136 134 134 130 128 130 132 132 136 143 142 145 140 139 133 128 128 128 115 111 114 122 123 122 127 129 131 129 124 123 126 136 155 144 150 144 146 138 135 113 66 66 83 85 89 103 107 111 109 126 122 116 133 268 258 274 268 219 187
232 254 239 231 247 241 243 253 249 243 244 119 165 208 206 221 175 224 247 223 243 142 199 157 156 143 156 210 144 144 145 142 143 145 137 136 140 146 141 139 133 133 132 136 132 133 138 140 143 135 133 134 128 123 128 133 122 127 120 118 125 138 139 144 139 137 138 141 157 181 185 202 158 144 177 131 158 139 109 120 115 113 105 102 112 117 128 127 135 171 213 281 266 250 243 215 181
211 219 231 235 236 241 244 247 252 243 264 139 149 167 213 235 165 217 196 230 242 164 206 132 79 76 98 111 129 141 144 144 153 148 145 145 147 150 148 144 146 140 140 132 133 132 139 138 129 131 132 130 129 123 128 138 149 169 145 143 146 154 154 150 161 156 160 143 188 186 208 158 176 130 157 146 161 125 141 131 134 135 134 121 115 138 135 155 171 186 232 246 256 252 249 220 172
211 219 226 238 232 241 246 265 238 207 226 130 86 133 247 250 302 165 216 205 212 196 173 134 100 104 116 130 131 145 148 149 157 156 155 153 153 151 151 153 146 140 136 130 131 137 132 128 128 127 131 131 121 124 133 144 156 154 158 157 154 169 160 178 165 164 161 174 162 147 171 146 70 132 157 58 77 91 115 158 154 158 159 167 164 162 172 178 181 186 206 227 236 251 241 236 204
216 230 225 233 243 252 300 266 322 241 358 122 233 191 160 241 236 149 224 208 207 194 166 156 137 136 143 137 151 150 154 156 156 160 160 155 150 151 154 150 147 143 137 136 132 131 130 124 125 136 128 135 143 138 148 152 149 155 160 162 162 167 162 174 172 181 142 133 134 128 150 166 147 113 88 96 131 146 150 174 179 181 188 187 186 189 193 194 192 202 208 210 224 228 236 233 220
195 229 237 231 225 236 201 209 245 251 226 264 238 266 262 228 232 217 216 222 207 202 171 174 159 161 151 153 154 161 157 157 163 160 159 159 147 147 148 146 146 140 134 133 130 126 122 135 136 130 139 157 144 145 150 148 148 166 151 152 166 163 173 160 162 155 124 133 132 176 155 180 188 121 153 165 195 92 194 179 188 195 204 197 184 214 197 173 202 190 201 212 220 227 237 248 272
221 224 235 247 348 300 207 209 206 231 224 261 246 259 253 212 212 215 220 227 204 208 170 155 149 147 147 158 164 165 157 160 160 162 162 152 148 145 142 141 134 129 134 136 127 131 136 140 141 141 153 148 147 148 151 143 167 147 153 154 157 157 143 155 153 160 156 163 185 167 165 122 340 46 144 158 215 176 169 249 267 204 203 231 179 230 198 182 211 228 212 201 241 277 269 278 274
234 217 232 245 268 245 201 179 156 216 213 219 232 248 302 247 211 208 223 230 44 248 157 156 150 154 153 164 170 163 157 160 165 165 157 151 154 146 140 139 142 146 146 131 141 135 141 147 143 150 146 151 157 143 139 165 144 154 154 147 156 154 149 162 144 140 151 163 149 154 90 252 55 263 32 359 15 220 141 180 210 202 148 219 48 194 273 341 276 224 217 210 207 232 266 262 241
230 239 208 231 224 231 107 224 151 209 235 231 240 295 257 239 230 192 222 202 146 70 132 133 135 143 165 172 172 164 159 164 167 156 152 150 146 145 141 139 144 149 138 137 139 144 149 147 151 153 150 154 150 146 166 161 144 145 144 147 147 127 146 150 141 156 150 163 154 187 81 302 342 11 282 240 205 355 333 352 264 316 324 304 137 318 262 183 245 301 287 306 271 268 226 226 265
219 240 238 215 209 223 222 220 205 214 215 233 245 248 242 240 242 188 222 141 152 150 128 145 148 162 178 169 169 159 162 165 155 148 148 148 144 140 143 147 153 145 135 148 140 146 152 152 157 158 153 153 151 166 155 149 138 146 149 143 139 159 154 144 134 147 160 128 126 317 320 346 296 359 315 313 317 345 336 221 300 319 309 338 341 287 316 351 274 274 323 270 275 256 269 248 230
221 233 231 220 229 224 228 221 225 210 222 217 231 238 238 238 233 223 212 136 155 145 170 161 161 167 168 163 162 168 166 160 151 144 145 143 141 148 153 151 151 135 150 143 150 153 153 161 160 152 155 153 156 163 152 141 149 152 147 139 134 143 111 98 140 147 150 146 136 154 313 124 333 340 327 310 312 346 231 224 283 289 331 303 311 314 328 319 319 300 269 296 292 295 287 275 283
201 222 233 211 219 223 214 225 210 213 224 209 232 229 227 226 213 206 139 145 135 152 151 146 153 162 165 169 167 170 165 154 143 137 136 139 148 156 150 150 150 143 149 153 154 152 155 166 153 152 156 157 159 153 152 152 152 139 135 136 140 136 136 163 148 140 153 157 126 135 215 137 205 314 296 312 335 251 329 284 18 319 266 18 298 314 293 301 301 288 290 302 304 306 342 297 300
3 236 224 225 226 226 216 214 222 205 212 220 226 233 227 209 203 199 139 140 156 159 140 152 158 167 169 171 171 155 135 128 134 141 142 148 158 154 147 153 149 149 152 160 152 148 161 159 151 158 158 165 161 149 149 146 138 139 143 138 138 138 157 159 136 148 147 137 144 155 134 114 11 78 1 340 290 214 280 13 24 352 360 309 352 340 327 315 301 318 315 304 300 289 294 298 295
225 228 226 216 221 227 214 219 213 202 221 202 217 242 221 190 214 55 22 359 141 141 158 163 177 170 172 165 142 130 132 131 144 142 149 154 149 147 145 149 147 153 156 156 144 156 156 151 159 154 158 158 157 145 146 149 150 145 141 161 143 148 158 148 147 151 152 142 133 122 114 106 93 85 17 349 320 338 11 327 334 9 327 349 323 328 307 285 273 277 257 271 270 298 303 295 281
224 214 238 218 217 227 213 218 213 198 221 189 194 227 216 181 53 67 75 46 352 78 102 124 159 172 186 151 122 151 132 141 125 126 142 141 135 142 139 144 154 155 148 145 152 147 145 144 143 149 151 152 135 137 151 157 156 140 171 147 135 164 138 137 140 144 132 126 123 110 116 91 97 40 8 75 292 313 327 305 349 323 2 331 299 290 298 294 300 314 307 294 311 306 292 285 288
213 209 219 238 219 222 207 206 204 207 196 196 204 236 202 56 63 78 100 102 97 79 65 60 62 9 4 51 122 84 35 36 32 224 208 228 130 126 127 143 162 132 140 140 142 137 133 130 142 136 166 122 135 159 189 166 160 147 131 146 142 143 136 132 125 114 113 115 114 118 87 84 33 52 29 333 331 323 303 355 310 1 2 313 308 321 309 305 295 302 315 316 320 301 295 296 296
215 215 215 220 241 217 204 190 203 205 190 194 209 237 114 89 43 74 104 129 126 125 148 116 122 121 72 83 57 83 66 48 4 343 10 28 43 37 105 108 42 47 53 100 120 98 82 67 81 102 337 148 154 110 314 310 6 174 142 145 131 137 125 120 117 109 104 102 96 90 74 65 49 43 352 335 309 324 341 340 344 10 342 308 328 325 299 300 330 314 322 315 310 306 308 299 298
206 221 216 217 216 238 201 184 195 202 197 193 211 211 104 74 106 287 225 154 136 103 95 126 136 135 133 124 121 95 94 84 47 11 46 62 48 54 60 62 68 74 20 233 69 61 106 101 328 117 108 41 293 4 188 215 179 200 130 130 123 122 119 118 105 97 86 72 68 73 73 57 44 52 4 1 345 334 340 343 353 348 326 333 324 317 305 321 320 326 318 321 304 304 297 292 289
205 206 228 216 212 222 222 163 193 197 210 199 202 224 103 127 158 182 190 167 155 137 139 140 146 136 121 127 111 111 111 114 97 73 90 45 139 79 80 87 86 85 166 23 117 117 96 20 352 152 154 122 192 190 211 179 200 169 138 120 115 112 101 83 86 84 78 75 71 72 66 61 39 37 19 18 359 328 354 357 354 335 322 327 315 314 306 317 331 328 319 309 309 302 291 298 303
196 195 214 214 215 222 203 184 185 203 204 218 191 217 129 144 159 162 168 176 153 144 146 154 146 129 116 119 131 130 121 105 104 106 117 108 57 79 90 104 113 83 40 45 11 117 126 169 148 198 189 158 165 250 234 171 171 127 113 118 116 107 94 93 88 86 79 72 70 73 74 70 57 38 35 22 10 348 353 0 347 346 332 324 309 311 323 333 337 317 310 310 298 292 300 296 298
203 200 203 219 206 206 220 175 182 198 192 214 210 176 131 146 164 159 161 176 160 146 152 145 138 126 122 118 124 123 126 123 126 127 115 112 105 107 109 119 126 111 114 145 124 98 84 124 182 207 216 130 173 227 204 219 119 110 114 112 105 95 96 86 77 76 75 70 68 65 62 60 54 44 35 30 24 6 5 3 7 351 342 332 340 340 339 339 337 328 324 309 304 303 298 308 303
210 201 204 221 215 206 217 191 185 187 198 206 212 124 143 158 153 153 166 172 162 160 152 152 143 135 130 129 135 114 104 118 128 120 116 122 121 114 115 125 122 111 124 144 109 117 143 153 177 161 67 353 250 299 298 63 106 106 107 103 95 94 90 90 79 67 63 56 49 53 55 49 45 39 32 31 26 15 13 10 5 13 357 2 352 358 353 346 343 337 325 317 316 312 309 325 317
211 202 206 214 215 214 165 164 158 188 209 195 208 123 151 145 111 130 123 222 170 165 164 164 160 149 141 143 136 126 111 118 120 116 124 125 114 104 103 106 121 137 135 126 132 161 159 146 149 116 2 104 236 226 287 349 76 92 102 87 85 78 79 77 80 70 62 61 49 45 39 34 31 32 26 25 19 15 11 11 13 15 15 10 10 15 12 10 6 359 351 332 329 323 315 320 326
235 218 200 215 203 219 136 182 172 186 206 200 189 151 157 172 145 164 176 231 230 185 174 171 161 155 153 149 134 129 132 129 125 126 126 122 115 106 101 95 83 104 132 119 156 161 161 157 130 41 114 273 39 241 144 82 65 68 82 79 76 78 60 62 75 79 79 75 65 54 48 40 35 33 27 24 24 21 11 9 12 12 20 8 8 11 6 7 4 0 358 350 339 330 318 322 334
218 224 202 210 200 206 165 173 189 184 212 182 162 193 131 151 158 170 184 192 208 211 194 175 167 162 157 154 146 140 139 134 136 135 132 127 118 112 105 102 106 95 89 121 139 136 135 129 131 81 220 171 189 92 108 94 83 79 77 77 78 78 91 92 93 97 93 79 65 51 45 39 41 43 37 34 33 29 23 16 9 15 15 15 11 4 359 0 359 354 353 344 343 332 335 329 334
216 226 208 204 212 179 173 165 193 191 214 178 179 175 156 151 169 187 189 190 191 190 178 166 172 166 154 146 146 143 140 140 138 132 131 129 126 124 122 116 108 98 85 82 76 78 39 61 102 165 139 60 76 70 83 101 103 93 89 90 94 108 116 112 104 93 75 69 65 55 53 47 44 46 41 39 37 29 23 18 7 9 8 2 358 357 354 352 348 347 348 342 339 334 322 324 317
206 224 232 214 204 161 196 170 186 184 201 186 190 191 209 169 159 166 161 169 193 183 170 172 172 160 153 142 135 131 132 132 140 134 132 133 130 127 125 120 113 104 84 76 55 123 132 145 124 120 95 58 69 72 69 64 58 68 85 112 131 132 107 79 71 76 76 68 70 67 49 45 49 43 43 40 34 32 28 20 12 360 5 1 354 343 341 341 342 344 344 339 333 333 327 315 311
204 198 227 238 204 179 201 174 187 191 198 178 195 212 206 178 176 182 164 174 174 164 161 168 162 155 153 146 140 138 134 132 138 136 136 133 129 127 125 125 118 110 99 86 175 139 118 129 106 84 73 71 54 47 40 49 59 65 72 75 77 106 98 84 79 66 61 66 75 67 53 45 46 47 40 34 33 27 23 15 7 355 350 352 340 335 354 355 351 350 352 347 343 340 340 322 323
213 186 192 262 231 189 202 179 196 203 202 177 196 223 228 188 193 173 179 178 173 173 175 165 167 159 152 149 148 141 137 141 141 142 142 138 133 131 126 120 116 110 109 133 133 139 124 119 118 98 76 70 60 53 57 50 61 57 58 58 59 65 74 83 79 71 69 66 71 73 63 57 46 40 38 28 29 23 16 14 9 13 360 6 348 9 6 4 355 355 353 353 352 349 341 333 328
214 167 177 221 204 194 177 187 197 212 191 198 200 214 234 225 183 165 174 185 184 183 180 164 162 162 151 154 150 145 149 140 138 141 144 142 138 133 128 122 119 122 127 130 128 117 120 112 109 81 79 81 75 65 63 71 66 70 68 75 84 77 86 93 89 85 86 76 80 77 61 53 55 46 38 34 30 32 26 26 25 24 10 7 355 14 6 4 6 2 1 3 358 357 354 351 340
220 146 173 193 204 195 194 208 206 211 209 212 203 204 229 225 147 157 172 196 189 182 182 175 172 169 166 162 150 147 144 130 139 137 135 136 132 130 126 126 129 125 114 120 123 128 118 115 99 97 92 84 80 76 66 63 65 64 65 71 85 99 107 90 80 85 83 84 81 77 70 58 51 49 50 38 32 38 35 28 29 25 16 9 5 13 12 9 6 0 26 8 8 2 357 355 344
107 180 176 194 201 206 199 216 216 213 223 220 207 207 218 228 179 167 183 198 188 171 179 180 168 178 176 158 154 158 155 138 139 136 131 131 133 132 133 131 119 108 114 130 131 118 109 98 101 92 90 90 83 78 74 67 63 55 68 66 69 88 98 96 95 86 88 104 94 83 67 58 53 55 48 48 38 34 36 30 16 17 25 14 11 11 16 10 355 14 21 13 17 11 9 356 350
156 185 191 176 200 205 204 211 217 221 219 214 210 211 212 234 203 179 193 190 191 191 185 178 176 168 170 154 162 163 165 147 147 138 135 137 135 136 135 129 123 123 130 127 129 120 116 111 103 98 93 86 80 76 75 76 75 75 75 75 79 62 71 98 100 110 91 92 92 90 81 72 63 59 51 48 41 29 29 25 23 20 25 18 16 16 18 9 7 23 25 17 19 15 14 0 1
178 186 195 187 174 194 204 206 210 218 224 204 214 212 220 229 240 151 169 192 199 197 182 179 178 170 166 162 162 171 176 152 150 142 142 143 142 144 141 136 133 135 132 133 129 123 115 109 104 97 86 84 77 74 72 69 70 71 77 79 78 79 82 89 96 87 79 89 89 89 87 77 68 59 46 46 42 33 29 29 26 25 21 23 21 19 20 22 9 38 24 24 23 18 15 6 9
186 194 191 183 188 187 199 200 209 219 227 229 236 208 226 223 215 174 188 190 184 183 182 176 178 160 148 155 170 175 169 165 155 149 148 150 149 149 141 133 130 132 134 132 128 124 119 113 105 101 95 84 84 78 77 74 67 67 76 83 86 85 88 81 76 88 85 91 88 74 77 74 70 61 58 47 34 33 39 36 32 31 25 24 22 17 21 25 15 22 34 21 24 20 11 9 10
191 203 199 200 205 178 189 207 196 209 216 196 237 201 205 209 205 159 173 180 195 186 187 175 171 156 144 159 173 173 170 159 162 155 156 153 151 145 139 136 137 136 135 132 131 127 123 119 116 111 103 96 90 90 79 77 77 71 72 80 86 96 97 83 66 79 88 88 86 86 86 79 73 65 54 49 40 42 41 43 38 30 31 26 27 25 19 30 16 21 32 14 22 6 14 9 8
194 209 215 213 213 169 211 207 224 207 208 195 194 207 189 219 90 49 163 168 178 179 170 164 160 159 160 173 169 165 167 168 171 164 157 153 149 146 142 139 141 139 138 136 134 132 127 121 115 108 104 98 93 90 88 87 87 84 82 85 90 91 97 101 100 85 82 78 88 93 87 78 70 68 60 53 49 43 37 42 40 40 32 31 29 29 28 26 23 24 27 24 17 8 10 14 5
183 209 212 211 211 208 197 128 356 353 253 213 169 204 127 98 187 137 189 163 174 173 141 153 161 165 168 175 166 163 170 175 173 169 159 154 154 149 147 145 143 142 141 140 137 131 125 120 119 116 114 116 111 103 101 94 87 88 90 87 86 87 83 88 95 94 90 90 90 90 89 77 70 68 67 59 56 51 45 40 45 40 39 34 32 33 32 28 28 26 26 25 17 5 4 15 7
174 209 205 208 223 233 203 209 173 223 221 200 184 206 198 182 191 187 168 188 165 165 144 153 168 161 166 169 169 166 173 169 168 165 156 156 157 152 149 146 144 143 140 139 131 128 127 123 122 126 125 119 112 106 99 99 97 93 89 88 88 90 95 97 99 98 97 103 101 90 82 80 73 72 71 65 61 59 52 47 46 45 42 37 34 30 30 28 28 28 23 26 15 6 12 14 16
218 204 184 208 186 215 227 218 202 201 214 206 202 206 229 203 188 160 176 187 179 177 164 167 176 175 172 177 178 172 171 164 163 159 158 159 158 156 148 145 141 134 131 134 134 133 129 125 123 119 115 110 110 110 107 103 104 102 100 101 102 99 99 105 106 104 102 94 86 82 82 79 77 73 70 67 64 60 58 51 47 47 40 41 35 32 27 29 24 27 19 20 14 10 12 14 15
235 211 204 213 230 206 203 212 220 203 209 214 205 201 227 212 169 176 176 184 183 175 164 176 177 178 175 174 185 179 169 163 157 157 159 160 155 149 147 144 141 140 141 142 140 133 130 127 118 112 111 111 110 109 108 106 103 104 107 103 98 100 98 92 91 93 95 96 94 95 87 80 78 80 71 63 63 62 58 55 49 45 46 40 38 30 28 26 25 25 21 12 11 9 10 15 9
198 221 215 194 226 188 226 191 226 195 205 202 221 207 211 222 161 177 173 184 184 182 178 179 179 170 175 178 188 178 160 153 158 158 157 155 152 151 147 143 143 143 142 144 139 137 134 125 118 121 121 119 115 115 113 111 112 110 109 105 101 96 98 97 95 91 87 82 79 79 80 82 80 77 79 71 63 61 55 50 53 47 38 39 34 30 25 21 21 20 20 12 10 9 10 15 6
194 200 211 204 192 188 198 211 202 226 215 205 203 225 218 58 323 164 175 181 189 189 182 184 175 172 175 179 187 169 154 158 157 158 154 150 150 150 146 144 143 141 143 143 142 138 136 131 127 127 125 120 122 120 121 116 109 110 103 100 100 97 92 94 94 92 92 90 88 84 87 83 76 66 69 71 70 63 64 60 51 45 43 36 30 29 19 19 14 12 13 13 9 8 9 12 5